Flag for U.S.A. Weather past 2 weeks in Howland Island, U.S.A.

Now
86 °F

Scattered showers. Scattered clouds.


Feels Like: 97 °F
Forecast: 81 / 84 °F
Wind: 13 mph from East

Location: Funafuti

Current Time: Sep 30, 2014 at 7:00:55 PM

Latest Report: Sep 30, 2014 at 5:00 PM


Visibility: N/A

Pressure: 29.71 "Hg

Humidity: 75%

Dew point: 77 °F

Location of Howland IslandLocation

Historic Weather in Howland Island — Graph

°F

Howland Island temperature yesterday

Maximum temperature yesterday: 90 °F (at 2:00 PM)
Minimum temperature yesterday: 81 °F (at 12:00 AM)
Average temperature yesterday: 84 °F

Past Weeks' High & Low Weather Summary

 TemperatureHumidityPressure
High90 °F (Sep 16, 12:00 PM)100% (Sep 28, 9:00 PM)29.89 "Hg (Sep 28, 9:00 PM)
Low75 °F (Sep 26, 8:00 PM)63% (Sep 24, 11:00 AM)29.71 "Hg (Sep 30, 5:00 AM)
Average84 °F80%29.82 "Hg
* Reported Sep 15 5:00 PM — Sep 30 5:00 PM, Howland Island, Weather by CustomWeather, © 2014

Note: Actual official high and low records may vary slightly from our data, if they occured in-between our weather recording intervals... More about our weather records

Advertising

Howland Island weather history for previous 24 hours

 ConditionsComfort  
Time TempWeatherWind HumidityBarometerVisibility
5:00 PM
Sep 30
86 °FScattered showers. Scattered clouds.13 mph75%29.71 "HgN/A
4:00 PM84 °FScattered showers. Partly sunny.12 mph79%29.71 "HgN/A
3:00 PM88 °FScattered showers. Scattered clouds.9 mph70%29.71 "HgN/A
2:00 PM88 °FScattered showers. Scattered clouds.12 mph70%29.74 "HgN/A
1:00 PM88 °FPassing clouds.16 mph70%29.74 "HgN/A
12:00 PM88 °FScattered showers. Scattered clouds.12 mph75%29.77 "HgN/A
11:00 AM88 °FPassing clouds.9 mph75%29.80 "HgN/A
10:00 AM84 °FScattered showers. Scattered clouds.8 mph79%29.83 "HgN/A
9:00 AM86 °FScattered showers. Scattered clouds.6 mph79%29.83 "HgN/A
8:00 AM86 °FScattered showers. Scattered clouds.9 mph75%29.83 "HgN/A
7:00 AM84 °FScattered showers. Scattered clouds.9 mph79%29.80 "HgN/A
6:00 AM84 °FPassing clouds.15 mph74%29.77 "HgN/A
5:00 AM82 °FPassing clouds.16 mph94%29.71 "HgN/A
3:00 AM82 °FPassing clouds.13 mph79%29.77 "HgN/A
2:00 AM82 °FPassing clouds.10 mph84%29.77 "HgN/A
1:00 AM82 °FPassing clouds.10 mph84%29.80 "HgN/A
12:00 AM84 °FPassing clouds.9 mph79%29.80 "HgN/A
11:00 PM
Sep 29
84 °FPassing clouds.8 mph79%29.83 "HgN/A
10:00 PM84 °FPassing clouds.12 mph84%29.83 "HgN/A
9:00 PM84 °FPassing clouds.10 mph79%29.80 "HgN/A
8:00 PM84 °FPassing clouds.9 mph79%29.80 "HgN/A
7:00 PM84 °FPassing clouds.8 mph84%29.77 "HgN/A
Weather by CustomWeather, © 2014

See weather overviewHow to use our weather pages